RH
47 46 46 45 38 33 34 35 38 41 36 31 31 34 42 59 78 90 93 94 95 92 86 82 80 76 72 65 59 56 54 48 40 34 29 24 20 18 17 19 20 20 21 22 24 26 26 27 27 27 28 29 31 34 35 36 38 39 40 41 43 44 45 48 53 59 64 67 70 68 64 70 83 93 95 92 92 98 99 99 100 90 75 68 62
44 41 41 42 38 37 39 37 37 41 40 34 34 42 56 72 84 90 91 92 90 86 81 79 80 82 83 81 77 72 67 60 52 44 37 30 23 19 18 18 19 20 20 22 23 26 27 27 27 27 27 27 29 32 34 35 37 39 40 41 42 43 44 45 47 50 53 54 59 64 60 54 58 72 89 99 99 100 100 99 98 85 66 59 58
39 36 37 40 40 39 40 36 35 39 41 38 39 49 62 73 82 87 89 86 82 80 77 75 77 79 81 82 81 81 80 74 64 54 45 36 27 22 20 19 19 19 20 21 23 25 27 27 27 27 26 27 28 29 31 34 36 37 39 40 41 42 42 44 45 46 47 48 50 57 57 51 48 54 76 97 102 99 101 99 91 75 59 53 55
33 31 31 32 31 31 30 29 31 38 41 41 43 51 62 72 80 84 82 79 76 74 72 70 70 73 78 82 81 77 76 74 69 61 51 41 33 27 23 20 20 20 20 22 22 25 27 28 27 27 26 27 28 30 32 32 34 36 37 38 40 41 42 42 44 46 46 46 46 49 51 50 49 53 70 92 101 100 100 91 76 63 53 49 51
22 21 18 17 16 15 18 22 30 39 42 43 46 53 63 70 75 76 73 72 70 67 66 64 60 59 62 70 76 78 76 71 67 62 54 45 37 30 25 22 21 21 22 23 23 25 27 28 28 27 27 27 29 32 33 33 35 35 36 38 38 40 41 42 44 45 46 46 44 44 45 43 47 58 73 89 99 101 96 79 62 54 49 45 45
14 13 11 11 11 12 16 23 33 40 42 44 49 55 62 66 68 68 67 67 65 62 62 60 57 53 49 49 55 64 72 73 68 62 54 46 39 32 27 23 22 22 23 24 25 27 28 29 29 28 28 29 29 31 33 34 36 35 36 38 38 40 42 42 44 45 45 46 42 40 40 37 45 65 79 90 101 101 88 67 54 50 46 41 40
12 12 11 13 14 17 22 28 36 40 42 45 51 56 60 62 63 62 62 62 60 57 56 55 54 52 47 45 47 51 60 66 63 56 48 42 37 32 27 24 23 23 24 26 28 30 30 30 29 29 28 29 30 31 33 33 34 35 37 37 38 41 43 43 46 45 45 45 40 37 34 33 49 73 82 91 102 98 82 62 49 46 44 40 39
12 11 12 13 15 18 23 28 34 38 41 45 48 52 56 58 58 58 58 56 54 53 52 51 51 48 46 51 56 57 58 59 55 48 42 37 33 29 27 25 24 25 27 30 31 32 32 30 30 30 28 29 30 32 33 34 35 36 37 38 39 40 42 44 45 45 45 43 38 34 29 33 58 78 81 90 100 93 78 61 48 44 42 41 42
16 17 19 20 21 22 26 31 36 39 42 44 46 49 51 53 54 54 53 51 48 47 46 46 47 49 53 61 65 63 57 52 48 42 36 33 29 27 26 26 27 29 30 31 32 33 33 33 34 34 34 34 34 35 37 37 37 38 39 41 41 41 43 44 43 44 44 39 34 30 25 40 71 83 80 89 97 90 74 58 49 46 42 41 43
23 28 31 33 34 35 37 40 41 42 42 43 43 45 44 45 46 45 45 45 45 46 48 51 56 61 68 70 65 56 49 42 38 34 31 29 27 26 27 28 30 31 31 32 33 35 37 38 39 40 41 40 39 40 41 41 40 41 41 41 42 43 43 42 42 42 38 33 29 23 28 58 85 87 84 90 92 86 70 54 50 48 42 41 44
25 28 31 34 36 37 37 39 38 38 39 39 40 41 41 43 45 48 52 56 60 65 67 70 72 71 67 59 49 41 36 32 30 29 28 27 27 27 28 29 31 31 33 34 35 37 40 42 43 44 45 44 42 41 42 41 40 40 40 41 40 39 38 39 39 35 29 27 22 20 43 80 94 89 89 89 88 83 67 51 50 49 43 41 44
20 20 23 26 28 30 32 33 35 37 39 41 42 44 48 55 61 68 74 75 75 74 71 66 60 53 45 38 33 31 29 29 29 29 29 29 30 31 31 33 34 35 36 37 38 40 42 43 45 45 44 42 39 37 36 34 33 33 33 34 32 30 30 30 29 25 23 20 18 33 70 96 95 91 92 86 83 81 65 49 49 49 43 41 44
29 29 29 30 30 32 34 36 39 42 45 47 50 53 58 64 69 72 71 65 58 52 46 41 36 32 30 28 29 30 31 32 32 33 35 36 37 38 39 40 41 41 42 42 43 43 43 42 41 39 37 34 31 28 26 24 23 23 23 25 25 22 20 21 22 20 16 17 32 65 95 101 95 95 92 83 82 81 65 50 49 47 43 43 46
41 41 41 40 40 40 41 42 43 44 45 46 47 47 48 48 48 47 44 39 35 33 31 30 29 29 29 30 32 33 35 37 39 41 43 43 44 44 44 43 43 42 41 39 38 37 35 33 31 28 25 23 20 19 18 17 17 16 18 20 19 18 20 21 19 16 19 39 69 91 99 98 100 99 91 82 83 81 65 50 49 49 45 46 48
37 37 37 38 38 37 37 37 37 37 37 37 36 35 35 34 33 32 32 31 31 31 31 31 32 33 34 35 37 39 41 43 44 44 43 42 40 38 36 34 32 29 28 26 25 24 22 21 20 19 18 18 17 16 14 15 16 16 17 19 20 23 23 19 20 30 52 79 94 94 93 98 102 100 94 89 84 78 64 50 50 53 52 51 50
37 36 36 36 36 35 35 35 36 36 36 36 36 36 36 36 35 35 36 37 38 38 39 39 40 41 41 42 42 41 40 38 35 33 31 28 25 23 21 20 19 19 20 19 18 17 18 18 18 18 18 18 18 17 14 15 18 17 18 22 24 24 22 28 48 71 86 90 89 90 96 100 100 99 99 95 86 74 60 51 54 60 60 57 52
41 41 41 41 41 41 42 42 42 42 43 43 44 44 43 43 43 43 43 43 43 43 42 41 39 37 35 33 31 28 26 23 21 19 18 16 15 15 15 16 17 19 20 19 19 19 20 20 20 20 20 19 21 20 16 16 18 18 20 22 24 30 45 67 88 97 95 89 89 96 101 99 98 102 100 94 83 71 59 53 57 66 67 61 55
42 42 42 42 41 41 40 40 39 39 39 39 39 39 38 37 36 35 33 32 31 28 26 24 22 21 19 18 17 17 17 17 17 17 17 16 16 15 17 18 19 22 23 23 23 22 22 23 23 22 22 21 23 24 19 17 18 20 21 24 35 59 83 98 101 99 99 98 97 100 100 97 98 100 97 91 81 67 59 58 62 68 69 65 64
29 29 28 27 26 26 25 24 24 23 22 22 22 21 21 20 19 19 18 17 17 16 16 15 15 15 15 15 16 16 18 19 20 20 21 21 20 19 20 21 22 24 25 26 26 26 26 25 24 23 24 25 27 27 23 19 19 19 21 35 63 89 100 100 98 99 101 100 98 99 99 98 99 99 97 94 83 69 65 65 67 70 70 71 76
18 18 19 18 18 18 18 17 17 16 16 16 16 16 16 16 16 15 16 16 16 17 17 16 17 18 18 18 19 19 20 20 21 22 23 23 24 23 23 23 24 25 26 27 27 26 26 25 26 27 27 26 27 27 24 21 20 19 23 46 80 99 99 98 99 100 100 99 97 96 97 99 100 99 101 101 89 76 72 70 69 71 73 77 84
19 19 19 20 20 20 20 20 20 20 20 20 20 20 20 20 20 20 20 20 19 20 20 19 20 21 21 21 22 22 23 23 23 23 23 24 25 24 24 24 24 24 25 25 25 25 25 25 27 28 27 26 25 25 23 20 19 18 24 53 88 101 99 100 100 99 101 100 98 98 100 101 99 98 102 102 90 81 79 78 77 77 79 85 91
18 18 17 17 18 18 19 19 20 20 21 21 21 21 21 21 21 21 21 22 22 22 22 22 23 24 24 25 25 25 26 25 24 24 25 24 24 23 23 23 22 23 24 24 24 24 23 24 26 29 29 26 22 22 21 20 23 26 36 65 97 104 100 100 101 101 102 99 98 102 101 98 98 99 100 98 92 89 90 89 86 84 86 93 97
15 15 15 15 14 15 15 15 15 16 16 16 16 16 16 16 16 16 16 17 18 19 19 20 20 21 22 23 24 25 25 24 23 24 28 28 25 22 21 20 21 22 22 22 22 22 21 23 25 26 27 25 23 24 21 23 41 64 74 87 104 105 100 99 100 101 102 99 99 102 101 98 100 100 100 99 97 98 98 95 93 94 96 100 101
15 15 16 15 15 15 15 14 15 14 13 13 13 13 13 13 13 13 13 13 13 13 14 14 15 15 16 17 18 19 20 19 20 24 30 32 28 24 21 20 21 21 20 21 21 20 20 21 21 23 28 26 21 22 23 30 58 90 99 99 103 103 99 100 100 100 101 100 100 101 101 100 99 99 101 102 100 101 100 97 99 102 99 97 98
16 16 16 16 16 16 15 15 16 15 14 14 13 13 12 12 12 12 12 12 12 12 12 12 12 12 12 13 14 14 15 15 17 21 27 29 28 25 22 21 21 21 21 19 19 19 19 18 20 23 23 23 27 40 56 69 86 99 100 99 102 103 99 99 100 100 100 99 100 101 100 100 100 99 100 101 100 101 101 100 101 100 95 93 97
18 17 17 17 16 16 16 16 16 16 16 15 15 15 14 13 13 13 13 13 12 12 12 12 11 12 12 12 12 12 12 13 14 17 21 24 25 25 24 24 22 21 21 19 19 19 17 16 19 19 23 43 69 86 94 98 98 96 96 98 101 102 100 99 99 100 101 100 100 100 100 99 100 100 100 102 102 100 101 102 100 93 91 95 99
20 19 19 19 18 17 17 18 17 17 16 16 16 16 15 15 15 14 13 13 12 12 12 11 11 12 12 12 12 12 12 12 13 13 15 17 19 21 23 24 23 22 21 20 19 18 16 16 18 18 30 63 91 96 96 98 95 92 94 99 101 101 100 100 100 100 101 100 100 100 99 99 101 101 100 102 103 101 101 102 96 91 93 98 100
21 21 20 20 20 19 19 19 18 18 17 17 16 16 15 15 15 14 14 13 12 12 12 12 12 12 11 11 12 11 11 12 11 12 12 12 14 16 17 19 21 21 20 19 18 17 17 18 16 16 29 50 60 66 82 96 98 97 98 98 99 100 100 100 101 100 100 100 101 101 99 99 101 100 98 100 102 101 101 100 97 97 99 100 100
22 22 22 21 21 21 20 20 19 19 18 17 17 17 16 15 15 14 14 13 13 13 13 13 13 13 12 12 12 11 12 12 11 11 11 11 12 12 12 14 16 17 18 18 17 16 18 19 18 20 26 29 31 51 82 97 98 99 101 100 99 100 100 100 100 99 99 99 101 101 99 100 100 95 94 101 103 100 101 100 98 99 100 99 100
23 23 23 23 22 22 21 21 21 20 20 19 18 18 18 17 16 16 15 15 15 15 14 15 15 14 14 14 13 13 14 13 13 12 11 11 12 11 11 12 12 13 15 14 14 17 19 21 22 21 20 26 44 71 95 102 99 97 98 99 101 100 100 101 100 99 100 100 99 99 99 101 100 92 91 99 102 99 100 101 98 99 100 99 100
24 24 23 23 23 23 23 23 22 22 21 21 20 20 19 18 18 17 17 16 16 15 15 16 16 15 15 15 15 15 14 13 13 13 12 12 11 10 11 11 10 11 12 11 12 15 17 21 24 19 19 42 78 101 105 102 101 98 97 99 101 99 101 103 100 99 103 102 97 95 99 103 101 92 92 101 104 101 100 100 99 99 99 99 100
25 25 25 24 24 24 24 24 24 24 23 23 22 22 21 20 20 19 19 18 17 17 17 17 16 16 15 14 13 13 13 12 12 12 12 12 11 11 12 12 12 11 10 9 10 12 14 19 22 18 17 32 60 87 100 101 101 100 98 99 101 100 102 103 99 100 105 101 92 92 100 104 100 94 95 100 101 99 100 100 99 98 99 100 101
26 26 25 25 25 25 26 26 25 25 25 25 24 24 24 24 23 22 22 21 19 19 19 17 16 16 14 13 11 10 10 12 13 16 18 16 16 18 18 18 18 17 12 10 9 10 15 18 16 20 27 25 30 61 93 102 100 100 100 99 100 101 102 102 99 101 104 98 91 95 102 102 99 99 99 96 94 97 100 100 99 99 99 100 101
26 26 26 26 27 26 27 27 27 27 26 26 26 27 26 26 25 24 23 22 21 21 19 17 16 15 13 11 10 8 10 16 23 32 36 31 26 26 23 21 23 22 17 13 9 9 16 17 15 32 52 45 37 61 91 98 96 99 99 98 99 100 101 102 101 101 100 96 94 99 102 100 99 102 100 95 94 98 100 99 100 100 99 100 100
27 27 26 27 28 28 28 28 27 27 27 27 27 27 27 26 25 24 23 22 21 20 18 15 15 14 12 10 9 9 16 26 35 43 46 39 29 25 22 20 21 21 20 16 10 11 17 15 20 54 84 80 69 81 95 97 100 103 101 100 99 96 98 102 103 102 100 98 99 101 101 101 100 100 99 97 97 99 100 100 100 100 99 100 101
28 28 28 29 29 29 30 29 28 28 29 28 28 28 27 26 25 23 22 21 19 18 17 15 14 13 10 9 10 14 23 31 35 39 42 37 29 26 26 22 17 18 20 17 11 14 17 12 26 70 102 99 90 95 96 95 101 106 108 105 98 93 97 102 103 101 100 99 100 101 101 101 100 99 100 98 97 99 100 100 100 101 100 100 100
30 30 30 30 30 30 31 30 30 30 29 29 29 29 27 26 25 23 21 20 18 16 15 14 13 12 10 11 15 18 23 28 29 29 34 37 34 31 29 24 17 17 20 18 13 16 17 14 33 76 101 97 90 95 97 95 95 98 106 107 100 95 98 101 101 102 100 99 100 101 101 100 99 100 102 99 96 98 101 99 100 102 101 100 101
30 31 31 31 32 32 33 32 32 31 31 31 31 30 29 28 26 23 21 19 17 16 14 13 13 12 11 15 20 21 21 23 23 25 31 38 38 32 27 22 19 19 19 18 17 19 17 16 35 71 95 97 91 90 95 99 94 91 99 106 102 99 99 100 102 103 101 100 102 100 99 100 100 101 102 99 97 99 100 100 102 103 100 100 102
31 31 32 33 34 34 34 34 33 32 32 32 32 31 31 29 26 23 21 18 16 15 13 12 12 12 14 19 22 22 22 22 23 27 34 38 36 30 24 21 21 21 20 18 17 21 25 33 52 78 93 95 89 87 94 100 94 89 97 105 103 101 101 100 101 102 100 100 101 99 98 100 101 101 101 99 99 101 101 101 103 102 100 100 101
35 34 34 34 34 35 34 34 34 34 34 35 34 32 30 27 23 21 19 16 15 14 13 12 13 13 17 21 22 23 26 26 26 31 37 37 35 31 25 22 21 23 24 19 14 25 47 68 86 97 94 83 81 90 99 98 91 91 101 106 103 101 100 99 100 102 101 99 99 99 100 101 100 101 101 99 99 101 103 103 104 101 99 100 101
36 36 36 34 34 34 33 33 34 34 33 32 30 28 27 24 22 20 17 15 14 14 13 14 16 16 17 20 22 26 29 28 28 32 35 35 36 32 24 22 22 25 27 20 12 29 68 95 103 104 95 82 83 95 100 96 93 96 101 104 102 101 101 101 101 101 100 99 100 100 101 101 100 100 100 99 100 103 103 103 102 100 99 101 101
37 37 36 35 35 35 34 33 33 31 30 29 26 25 24 21 19 18 16 14 15 15 14 16 18 17 18 20 24 29 30 27 29 33 33 36 39 32 23 22 24 25 29 22 11 31 77 104 106 103 97 89 91 99 98 95 98 100 100 101 102 102 101 100 101 100 100 100 101 101 100 100 100 99 100 101 102 103 103 102 101 101 101 101 101
37 37 36 35 34 33 32 30 28 26 24 23 22 22 21 19 18 18 17 17 18 18 18 19 19 19 21 24 26 29 29 27 29 33 32 35 39 32 22 21 22 24 27 20 13 39 84 106 103 101 100 96 98 101 98 96 99 99 99 100 101 101 102 101 100 101 101 100 100 100 99 99 100 100 102 104 103 102 103 103 102 102 102 100 100
37 37 36 34 32 30 28 26 25 24 23 22 21 20 19 18 18 20 21 22 24 23 22 23 23 23 26 29 30 29 27 24 28 32 31 32 36 32 23 19 19 22 25 18 16 45 87 104 100 100 102 101 99 97 94 97 101 99 100 102 101 100 103 102 98 99 100 98 99 100 99 100 102 103 103 103 101 101 102 102 101 102 101 99 99
37 36 33 31 28 27 25 24 23 22 21 21 21 21 21 20 22 25 27 28 30 29 27 26 26 27 28 29 28 25 23 24 28 31 29 30 33 31 24 19 17 19 21 16 18 46 85 103 103 101 97 96 97 96 97 105 108 101 99 102 100 98 101 100 97 99 100 98 99 101 100 101 104 103 101 101 101 100 100 100 100 101 99 99 101
35 33 31 29 27 26 26 26 25 25 26 27 27 29 30 30 30 33 36 38 38 36 33 31 29 30 30 28 25 25 26 29 33 34 30 31 33 30 24 20 18 19 20 15 17 44 80 103 108 103 93 89 96 103 105 107 106 100 97 100 100 99 100 100 98 100 100 99 100 101 100 101 102 100 99 101 101 101 100 100 99 99 99 100 103
32 30 28 27 27 27 27 26 26 29 38 46 50 51 50 47 44 44 46 47 46 44 40 37 35 33 31 29 29 31 33 36 40 41 37 34 34 30 25 21 19 20 20 15 15 40 78 100 105 103 96 90 95 103 105 102 100 99 99 100 99 99 100 101 100 100 100 100 100 101 101 101 101 100 101 102 101 99 99 99 99 101 103 103 102
31 30 30 30 29 31 39 47 49 51 59 70 76 74 66 60 58 56 55 54 53 50 48 46 45 42 40 38 38 40 41 41 45 47 44 40 37 31 25 21 19 20 22 16 11 31 71 98 102 100 99 97 97 102 104 102 101 101 101 100 100 100 101 100 100 100 100 100 101 100 100 101 101 101 102 102 99 97 99 101 101 101 102 101 100
32 32 32 31 32 42 62 79 86 87 90 94 96 92 84 78 76 77 76 76 74 71 67 65 64 61 57 55 55 54 52 49 49 51 50 48 43 34 26 22 19 19 22 20 11 18 51 86 100 99 98 100 101 102 101 101 101 101 101 100 101 101 101 100 100 100 100 100 100 100 100 101 102 101 100 100 98 97 99 101 101 101 100 99 99
33 34 37 43 53 68 86 95 94 95 100 102 101 99 97 94 94 94 93 92 92 90 89 89 88 84 80 78 76 74 68 59 52 49 50 51 47 38 30 25 22 19 21 24 19 16 30 59 85 97 99 99 99 99 100 101 101 101 102 102 102 101 101 100 99 100 100 100 100 101 101 101 101 100 98 98 99 99 99 100 100 100 100 99 100
32 36 45 58 71 85 96 100 96 94 98 101 101 101 99 97 96 98 98 96 96 98 99 99 100 98 94 89 85 79 71 63 53 46 46 49 49 43 35 30 26 23 23 26 28 25 24 35 57 80 93 97 98 99 100 103 105 106 105 104 102 101 101 100 99 99 100 100 100 101 101 100 100 100 99 99 100 100 100 100 100 100 99 100 102
Wind_Speed
31 29 27 26 24 22 21 20 21 21 21 22 21 20 19 18 17 18 18 18 17 17 16 16 17 19 20 20 20 20 21 22 22 23 23 23 23 23 23 24 25 26 26 26 27 29 29 29 30 30 30 30 30 31 31 31 31 31 31 31 31 32 33 34 34 35 36 36 36 37 38 38 38 40 41 42 42 43 43 44 46 48 48 47 47
33 31 30 29 28 27 25 24 24 23 23 23 22 21 21 20 21 21 21 20 19 19 18 18 19 20 22 23 23 23 23 24 25 25 25 25 25 25 24 25 26 28 28 29 29 30 31 31 31 32 32 32 32 33 33 33 34 34 34 34 34 34 35 36 36 37 39 40 40 40 40 40 40 41 41 42 43 43 43 44 46 48 47 46 47
34 32 31 31 30 30 29 28 27 26 26 26 25 24 24 25 25 25 23 22 22 22 21 21 21 21 23 24 26 26 27 27 28 28 27 27 27 27 27 27 28 29 30 31 31 32 33 33 34 34 34 34 34 34 35 35 36 36 36 37 37 37 38 38 38 39 41 43 44 43 43 42 43 42 40 40 42 41 41 43 46 47 46 46 47
34 33 33 32 32 32 32 32 30 29 29 28 27 28 28 28 28 27 26 25 25 25 24 24 24 24 24 26 28 29 29 30 31 31 30 29 29 30 30 30 30 31 33 34 34 35 35 35 36 36 36 36 35 36 36 36 37 38 38 39 40 41 41 41 41 41 43 44 45 46 46 46 47 45 40 38 39 38 39 42 45 46 46 45 47
34 34 34 33 34 35 35 34 33 32 31 30 30 30 30 31 30 29 29 28 28 28 28 27 27 27 27 28 30 31 32 32 33 34 33 32 32 32 32 32 32 33 34 36 37 37 38 38 38 38 38 38 37 37 38 38 38 39 40 40 41 43 44 44 44 44 45 46 46 47 48 48 50 46 39 36 35 35 38 42 44 46 46 46 47
36 35 35 35 36 37 36 35 35 33 32 31 32 32 33 33 32 31 31 32 32 31 31 31 31 31 31 32 33 33 34 35 36 36 36 35 34 34 34 35 35 36 37 38 40 40 41 41 41 41 41 40 40 39 40 40 40 41 42 43 43 44 46 47 47 47 47 47 48 49 49 49 50 44 37 34 34 34 37 41 44 46 47 47 48
37 37 36 36 38 38 38 37 36 34 33 33 34 35 35 35 34 34 34 34 35 34 35 34 34 34 35 35 36 36 37 37 38 38 38 37 37 36 37 37 38 38 39 41 42 43 44 44 44 44 44 43 43 42 42 43 43 44 44 45 46 46 48 49 49 50 50 49 50 50 50 50 48 40 33 32 32 33 38 41 44 46 48 49 50
39 39 38 38 40 40 38 37 36 35 35 36 36 37 37 37 37 37 37 37 37 37 37 37 37 38 38 38 38 38 39 39 40 40 40 39 39 39 39 40 40 41 42 43 45 46 47 47 47 47 47 45 45 45 45 45 46 47 48 48 49 49 50 51 51 51 51 52 52 52 51 51 45 36 31 30 30 33 38 43 45 47 49 50 52
40 39 38 39 40 39 37 36 36 36 35 36 37 37 38 39 39 39 40 40 40 40 40 40 40 40 40 40 40 40 40 41 41 42 42 41 41 41 42 42 43 44 45 46 48 49 50 49 49 50 50 49 48 48 48 49 50 51 51 52 52 52 53 53 53 53 53 53 53 52 51 49 42 34 31 30 31 34 39 44 46 47 48 50 52
41 40 39 40 40 38 36 36 36 36 37 37 38 38 39 40 41 41 42 42 42 42 41 42 42 42 42 42 42 42 42 42 43 44 44 44 44 44 45 46 46 47 48 49 50 51 52 52 52 53 53 54 53 51 51 53 53 54 55 56 55 55 55 55 55 55 54 54 53 52 51 47 39 33 32 32 33 36 40 45 48 47 49 50 52
42 42 41 41 40 39 38 38 38 38 39 39 40 40 41 42 43 43 44 44 43 43 43 44 44 44 43 43 43 44 44 44 45 46 46 46 47 47 48 49 50 50 51 52 52 53 54 55 56 56 57 58 57 56 56 56 57 57 58 59 58 57 57 57 57 56 55 53 52 50 48 43 37 34 34 34 35 38 41 46 49 49 50 51 53
43 43 42 42 41 41 41 41 41 41 42 42 43 43 43 44 44 45 46 46 45 45 46 46 46 45 45 45 45 46 47 48 48 49 49 49 49 50 51 52 53 53 54 55 56 56 57 58 59 60 61 61 61 60 60 59 60 60 60 61 61 59 57 57 57 55 53 51 49 47 44 39 36 36 37 37 37 39 42 48 50 50 50 52 54
43 43 43 43 43 43 43 43 43 44 44 44 44 44 45 45 46 47 47 47 47 47 47 47 47 47 47 48 48 49 50 51 51 51 52 52 52 53 54 55 56 57 58 59 59 60 60 61 62 63 63 64 64 63 62 62 62 62 61 62 62 60 57 55 55 52 49 47 45 43 40 37 36 38 39 39 39 40 44 50 51 50 51 53 55
44 44 44 45 45 44 44 44 44 44 44 44 45 46 46 47 47 48 48 48 48 49 49 49 49 50 50 50 51 52 53 54 54 55 55 55 55 56 57 58 59 60 61 61 61 62 63 63 64 64 64 65 65 64 62 62 61 61 60 60 60 58 55 52 50 47 44 42 40 38 37 37 38 39 41 41 40 41 47 52 52 51 52 54 56
46 46 46 46 46 46 46 46 46 45 45 46 47 48 49 49 49 49 50 50 51 51 51 52 52 52 53 54 55 56 57 57 58 59 59 59 59 58 59 60 61 62 62 62 62 62 62 62 62 62 62 62 63 62 60 59 59 58 56 56 55 53 50 47 43 39 37 36 36 36 37 37 39 41 42 42 41 43 49 54 54 52 53 55 56
48 48 49 49 48 48 48 48 48 48 48 49 50 51 52 52 51 51 52 52 53 53 54 54 55 55 56 57 58 59 60 60 61 61 61 61 60 59 58 58 58 59 59 59 59 59 59 59 59 59 59 59 60 61 57 55 56 55 52 50 49 47 44 40 35 31 32 34 36 38 38 38 40 42 43 42 42 46 51 54 54 53 54 57 57
50 51 51 50 50 50 50 50 51 51 52 53 54 54 54 54 54 54 55 55 56 57 57 57 57 58 58 58 59 59 59 59 59 59 59 59 58 56 54 53 53 54 55 56 56 56 56 57 57 57 58 57 58 59 55 51 51 51 48 45 42 39 34 31 29 29 31 35 38 40 41 41 41 43 43 42 44 48 53 54 54 54 56 58 59
53 53 53 53 53 53 53 54 54 54 55 56 57 57 56 56 57 57 57 57 57 57 57 57 56 56 56 56 55 55 54 54 55 55 56 56 55 53 52 50 49 49 51 53 54 54 55 56 56 57 57 56 57 58 55 50 47 47 44 39 34 30 24 23 27 31 32 35 39 42 43 44 43 43 42 42 46 51 54 55 55 55 57 59 60
53 53 53 53 54 54 54 54 54 54 55 55 55 55 55 55 55 55 54 54 54 53 53 52 52 52 51 51 50 50 50 50 50 51 52 52 53 52 51 49 47 47 48 49 51 52 54 55 56 57 56 55 55 57 56 50 45 42 39 33 27 23 20 21 26 32 34 36 40 43 45 45 44 42 42 44 48 52 55 57 57 57 58 59 60
45 46 46 47 47 48 48 48 49 49 49 49 49 49 49 49 49 49 48 48 48 48 48 47 47 47 47 47 47 47 48 48 47 48 49 50 50 50 49 49 47 45 44 45 47 50 51 53 54 56 55 52 51 54 54 48 43 38 34 30 26 23 22 22 26 32 35 38 41 44 45 45 44 41 42 47 52 54 57 58 59 59 60 60 60
37 38 38 39 40 41 41 41 42 42 43 43 43 44 44 44 44 44 44 44 44 45 45 44 44 45 45 45 45 46 46 47 47 48 48 48 48 48 47 47 46 44 42 42 45 47 49 50 51 53 54 51 48 50 49 44 40 35 31 28 27 27 28 29 31 36 40 41 43 43 43 44 43 41 44 50 54 55 58 60 61 61 61 61 60
34 35 36 36 37 38 39 39 39 39 39 40 41 41 42 42 42 42 43 43 43 43 43 43 43 43 43 44 44 45 45 45 46 47 49 48 48 47 46 45 45 43 41 41 44 46 47 48 47 49 51 50 46 45 44 40 35 29 25 26 29 34 38 41 42 43 43 43 43 43 43 44 44 44 47 52 54 56 59 61 62 62 61 60 60
36 36 37 37 37 38 38 38 39 39 39 40 40 41 41 42 42 42 42 42 41 41 42 43 42 42 43 43 43 44 44 45 45 48 51 52 52 50 48 46 45 43 41 41 44 46 47 46 45 45 47 46 44 42 40 36 31 25 24 29 33 35 38 39 39 41 42 43 44 44 44 44 45 46 49 51 54 58 61 61 63 63 61 59 60
39 39 39 38 38 39 39 40 40 41 41 41 41 42 43 43 42 42 42 42 41 41 41 42 42 43 43 43 44 44 45 45 46 48 52 55 55 55 53 51 48 45 42 43 45 47 47 44 41 41 42 42 41 41 38 34 32 32 34 35 34 33 34 35 36 39 41 42 43 44 44 44 44 45 47 50 53 56 59 60 61 60 58 56 57
41 41 41 41 41 41 41 41 42 43 43 43 43 44 45 44 44 44 44 43 43 43 43 43 43 43 44 45 46 46 46 47 48 50 53 56 57 58 58 56 53 48 45 46 49 49 46 41 37 38 38 36 37 39 40 39 41 42 42 39 37 38 41 42 41 42 42 41 40 42 43 42 41 42 46 49 51 53 55 56 56 56 55 55 57
44 44 44 44 44 44 44 45 45 46 46 46 46 47 47 47 46 47 47 46 46 46 46 46 46 46 47 47 48 49 49 50 50 52 54 57 59 60 60 60 58 53 48 49 53 51 46 41 37 33 32 34 40 47 51 53 53 50 47 44 43 47 50 50 47 46 46 43 42 44 44 41 40 43 47 49 50 52 54 53 53 54 55 55 57
46 47 47 47 47 47 48 49 49 49 49 49 49 50 50 50 49 50 50 50 50 50 50 49 49 49 50 50 50 51 51 52 53 54 55 57 59 61 62 63 62 59 54 54 56 53 48 43 38 36 38 45 52 55 54 54 51 47 44 44 45 48 51 51 48 47 48 46 44 44 44 41 41 45 48 49 50 53 53 52 53 54 55 56 58
50 50 50 50 50 51 51 52 53 53 53 52 52 52 53 53 52 53 53 54 54 53 53 53 52 52 52 52 53 53 53 54 55 56 56 57 60 61 62 62 64 62 60 59 58 55 52 48 46 48 53 56 57 53 48 44 43 40 38 39 42 43 46 47 47 47 47 45 43 43 42 40 42 46 49 51 52 52 53 52 53 54 55 57 59
53 53 53 53 54 54 55 55 56 56 56 56 56 55 55 56 55 56 56 56 56 56 56 56 57 56 55 56 56 55 55 56 57 58 58 59 61 63 63 63 63 63 63 63 60 57 56 54 53 57 59 55 49 45 42 40 39 39 40 40 39 38 41 44 47 49 49 47 45 43 41 40 43 47 51 53 52 52 51 52 53 55 57 59 61
56 56 56 57 57 58 58 58 59 59 59 59 59 58 58 58 58 58 59 59 59 59 59 60 60 60 59 59 59 59 59 59 60 61 61 61 63 65 65 65 65 64 66 65 61 58 59 57 56 59 57 50 46 46 48 48 45 42 42 42 38 39 43 46 48 49 49 48 46 43 41 42 46 49 52 52 52 52 53 53 55 57 58 60 61
60 60 60 60 61 61 61 61 62 62 62 61 61 61 61 61 61 61 61 61 61 61 62 62 63 63 62 62 62 62 63 63 63 64 65 66 66 67 68 68 67 67 69 67 61 58 58 56 55 55 51 47 51 55 56 56 53 47 44 43 43 46 50 51 51 50 50 49 47 43 42 44 48 51 52 52 52 53 53 54 55 55 57 59 61
63 63 63 63 64 64 64 64 64 65 64 64 64 64 64 64 64 64 64 64 63 63 63 64 65 65 65 65 66 65 65 66 67 68 69 70 70 70 70 70 69 69 71 69 65 61 59 55 54 52 48 49 55 55 48 45 46 46 46 46 47 49 52 52 52 52 53 51 47 44 44 47 51 53 53 52 52 52 51 51 52 53 55 58 59
65 65 66 66 66 67 67 67 67 67 67 67 67 67 67 67 67 66 67 67 67 66 67 67 67 67 68 68 67 66 67 68 70 71 71 71 69 68 67 67 66 67 68 69 67 64 60 56 51 47 43 45 49 48 41 38 42 48 51 50 47 47 49 50 50 51 53 50 45 44 48 51 53 55 54 53 52 51 49 50 53 54 55 57 58
68 68 68 69 69 69 70 70 70 70 70 70 70 70 70 70 70 69 69 69 69 70 70 70 69 69 70 70 68 67 67 68 68 69 67 64 61 61 60 60 62 63 63 64 64 62 60 55 46 38 36 37 38 40 40 40 43 47 48 47 46 50 53 51 49 50 49 46 44 46 50 53 55 56 55 52 51 50 49 52 55 55 55 56 55
71 71 71 72 72 72 73 73 73 73 73 73 73 73 73 73 73 73 72 72 72 72 73 72 72 72 72 70 69 67 66 66 66 64 61 57 55 56 58 58 60 61 60 60 59 58 58 52 39 31 30 30 31 37 43 48 50 51 49 46 47 51 54 52 51 50 47 45 47 50 52 54 56 57 55 52 51 51 53 55 56 56 55 54 54
74 74 74 74 75 75 75 76 76 76 76 76 76 77 77 77 77 76 75 75 75 75 75 74 74 74 73 71 68 66 64 63 62 61 59 58 58 60 62 62 61 60 58 58 57 56 54 48 37 32 32 32 35 43 50 54 58 61 58 52 48 49 51 53 54 53 50 48 51 54 55 56 59 59 56 54 52 54 57 57 56 55 54 53 54
77 77 77 77 78 78 78 79 79 79 79 79 79 80 80 80 80 79 78 78 77 77 76 76 76 75 73 70 67 64 63 63 62 61 60 61 63 65 66 65 62 59 56 57 56 54 51 45 40 39 39 38 40 44 47 49 53 59 62 56 50 50 53 54 54 55 54 53 54 57 58 61 63 61 58 55 55 57 59 58 56 55 54 53 55
80 80 80 80 81 81 81 81 81 81 81 81 82 82 82 83 83 82 81 80 79 78 78 77 76 75 72 69 66 64 63 64 64 64 63 63 65 67 67 65 63 58 54 54 56 54 49 44 43 44 44 41 38 40 44 48 50 55 62 62 58 57 57 57 57 60 60 59 59 61 63 65 66 63 58 56 58 59 59 58 56 55 54 54 56
83 83 83 83 83 83 84 84 84 83 83 84 84 84 84 85 85 84 82 81 80 79 78 77 75 73 70 68 66 66 65 64 64 64 64 65 67 69 67 65 63 59 54 53 54 51 47 44 43 46 48 47 42 40 41 44 47 52 58 62 61 60 59 60 61 63 63 61 62 63 65 65 64 61 59 58 59 60 59 58 56 55 54 56 58
85 86 86 86 86 86 86 86 86 85 85 86 86 86 86 86 86 84 83 81 80 79 77 75 73 70 68 67 67 66 65 64 63 65 67 68 70 70 67 64 62 59 55 54 53 49 45 43 42 44 48 50 48 45 42 41 44 49 54 58 59 59 59 58 59 60 61 63 64 64 63 62 60 60 60 60 60 60 60 58 56 55 55 58 61
88 88 89 89 88 89 88 88 88 88 87 88 88 88 88 87 86 85 83 82 80 78 76 74 72 71 69 68 67 65 64 64 65 67 70 71 71 68 64 62 61 59 56 55 54 49 43 41 41 43 47 48 46 43 41 40 43 49 55 58 59 58 57 57 58 59 62 65 65 63 61 60 60 61 61 61 61 61 59 57 55 55 57 60 62
91 91 91 91 90 90 90 90 90 89 89 89 89 88 88 87 86 84 83 81 79 78 76 75 73 72 71 69 67 65 65 66 68 70 71 70 68 66 62 60 60 59 56 56 54 49 43 40 41 45 46 44 41 40 39 40 44 49 54 55 55 55 56 58 60 61 62 63 63 62 61 62 63 63 62 62 62 60 57 56 55 56 58 60 61
93 93 93 92 92 91 91 91 91 91 91 90 89 89 88 87 85 83 82 81 80 78 77 76 74 73 72 70 68 67 67 69 70 71 69 67 65 64 61 58 58 58 56 56 55 49 43 41 41 41 39 35 33 35 39 41 42 45 48 50 52 55 58 60 61 61 60 60 61 62 63 64 65 64 63 62 60 57 56 55 55 56 58 60 62
94 94 94 93 92 92 92 92 91 91 90 90 90 89 88 86 84 83 81 80 79 77 76 76 75 74 73 72 71 70 70 71 72 70 67 65 64 62 59 57 57 56 55 57 56 49 41 35 32 32 32 30 27 30 38 44 45 47 50 53 54 55 57 57 58 58 59 60 61 63 64 64 64 62 61 59 58 56 55 55 55 57 60 62 64
95 95 94 94 93 92 92 91 91 91 90 89 89 89 88 85 83 81 80 79 78 77 77 77 76 75 74 73 72 72 73 74 73 71 67 65 64 61 57 57 57 54 54 56 56 50 43 34 25 23 28 30 27 31 44 56 59 56 54 55 57 57 57 58 58 59 60 61 61 62 62 61 61 60 60 59 58 57 56 57 59 62 64 65 66
96 95 94 93 92 92 91 91 90 89 88 88 88 87 86 84 82 81 80 79 80 79 79 78 77 75 75 75 75 76 76 75 74 73 71 68 66 62 58 58 58 55 54 55 56 53 50 44 35 28 29 35 40 45 54 64 68 64 58 57 58 59 60 61 61 60 60 60 61 61 61 62 62 62 61 60 59 59 60 62 64 66 66 67 68
96 95 95 94 93 92 91 90 89 87 86 85 85 84 84 83 82 81 81 80 81 80 80 80 79 78 78 78 78 78 77 76 76 77 76 71 67 62 58 59 61 59 56 56 57 58 57 54 48 43 41 47 56 62 64 67 70 69 66 64 63 63 64 63 62 62 62 63 64 65 65 65 64 63 62 62 63 64 65 66 67 67 68 70 70
96 95 94 93 92 90 88 86 86 85 83 82 82 82 83 83 83 83 82 82 82 82 81 81 81 82 82 82 81 81 80 79 79 80 80 75 69 63 59 58 61 62 60 59 59 61 63 62 58 55 52 55 62 68 70 69 71 72 71 69 67 67 68 68 67 66 67 67 67 67 66 65 64 64 65 67 68 68 68 68 68 69 70 70 70
95 94 93 91 89 86 84 82 81 79 79 79 81 82 83 84 83 83 82 82 82 83 83 83 84 84 85 85 85 84 84 84 83 82 82 79 74 67 62 59 60 62 63 62 61 63 67 69 68 65 64 65 68 71 73 74 75 75 75 74 72 72 72 71 70 70 69 68 67 66 65 65 66 68 69 69 69 68 68 68 69 70 71 71 71
94 93 91 88 86 83 82 81 81 80 79 79 81 82 83 83 83 83 83 83 84 84 85 85 86 86 86 86 87 87 87 88 87 86 84 81 76 70 66 62 59 61 64 65 63 64 67 71 74 75 74 76 78 79 80 80 79 77 76 75 74 74 74 73 73 72 70 68 67 66 66 67 69 70 70 69 68 68 69 70 71 71 72 72 73
94 92 90 88 85 83 82 82 83 83 82 82 82 83 84 84 84 85 85 86 87 88 88 88 88 89 89 90 91 91 91 92 92 90 85 81 77 73 68 64 59 59 62 64 65 65 66 70 75 79 81 83 84 85 85 84 82 79 77 74 72 71 70 69 69 68 67 66 66 66 66 68 69 70 69 69 70 70 71 71 72 72 73 74 75
Wind_Direction
217 220 223 226 226 229 234 238 240 241 240 239 238 239 240 243 247 252 258 263 268 272 277 284 289 292 296 297 299 300 299 299 298 297 300 302 303 305 307 309 311 314 317 319 320 322 323 324 324 325 326 327 328 329 329 330 331 331 332 334 335 336 336 337 336 335 333 331 330 332 335 336 334 331 330 329 328 329 332 336 337 340 345 346 344
220 222 224 224 225 229 234 238 238 239 239 237 235 235 237 240 245 250 256 263 269 273 277 281 284 287 291 293 295 297 297 295 295 296 299 301 301 303 304 305 307 309 311 314 315 317 318 319 320 321 321 323 324 324 325 326 327 328 329 330 331 331 332 332 333 332 331 329 329 329 332 334 334 333 330 326 325 326 331 334 336 340 344 344 344
225 227 229 229 230 233 236 237 238 237 236 233 232 232 236 240 244 249 255 261 268 273 277 280 282 284 286 289 291 292 292 293 294 295 298 299 300 300 302 303 304 305 307 309 311 313 314 315 316 317 317 318 319 320 321 321 323 324 325 326 326 326 327 328 329 329 329 328 328 328 329 330 331 332 329 325 323 325 331 334 337 340 343 343 344
230 231 233 234 235 237 238 238 237 236 235 231 231 233 237 241 245 250 256 262 267 271 275 279 282 284 285 287 288 289 290 291 292 294 295 297 298 299 301 302 302 303 304 306 308 309 310 311 312 314 315 315 316 317 317 318 319 319 320 322 322 322 322 324 325 327 327 328 327 327 326 326 328 329 327 324 323 327 332 335 337 339 341 343 343
231 233 235 236 237 238 238 238 238 237 235 233 234 237 240 244 247 251 257 262 267 270 273 276 280 283 285 286 287 288 289 290 290 291 293 295 297 299 300 300 301 302 302 303 305 306 307 308 309 311 312 312 313 314 315 315 316 316 317 318 319 319 319 320 322 324 325 326 326 325 325 325 326 327 326 324 325 329 333 336 337 338 339 341 343
230 232 233 234 236 237 237 238 239 238 237 236 238 240 243 245 248 252 257 262 266 270 273 275 279 282 285 287 287 287 287 288 289 290 292 294 295 297 298 299 299 300 300 301 303 304 305 306 307 308 309 310 310 311 312 313 313 313 314 315 315 316 316 318 319 321 323 323 323 324 323 324 326 325 323 324 326 330 335 338 337 336 337 339 341
230 231 231 233 235 236 236 238 239 239 238 238 240 242 244 247 250 254 258 262 266 270 273 277 280 282 285 287 287 286 286 286 287 289 290 293 294 295 296 297 298 299 300 300 301 302 302 303 304 305 306 307 308 309 310 310 310 310 311 311 312 313 314 315 316 318 320 320 321 322 322 323 324 323 320 321 325 330 335 337 335 334 335 338 340
232 232 231 233 236 237 237 240 242 242 241 242 244 246 248 251 255 258 262 265 269 272 275 278 280 283 285 286 286 285 285 285 286 287 289 291 292 293 294 295 296 297 298 299 299 300 300 302 303 303 304 305 306 307 308 308 308 308 308 309 309 310 311 312 314 315 316 317 319 319 320 321 322 319 317 318 322 329 334 334 333 333 334 337 340
233 235 234 235 238 239 240 243 245 245 246 247 249 251 253 256 259 261 264 268 271 273 276 278 279 281 282 283 283 283 283 284 285 286 288 290 291 292 293 294 295 296 297 297 298 298 299 300 301 302 303 304 305 306 306 306 306 306 306 307 307 308 309 310 311 312 313 315 316 317 318 319 318 316 314 316 319 325 330 331 331 331 333 336 340
235 236 236 237 239 241 242 244 245 247 248 249 251 253 255 258 260 262 265 267 270 272 275 276 277 278 280 280 281 281 282 283 284 285 287 289 290 291 292 293 294 295 295 296 296 297 298 299 300 301 302 303 304 304 304 304 304 304 304 304 305 306 307 308 309 310 311 313 314 314 316 316 315 313 312 313 316 320 326 329 330 330 331 335 339
237 238 238 239 241 242 243 244 245 248 249 250 252 253 255 258 260 263 266 268 270 273 274 275 276 277 278 278 279 281 282 283 284 285 287 288 289 290 291 292 293 294 294 294 294 295 296 297 299 299 300 301 302 302 302 302 302 302 302 302 302 303 305 306 307 308 310 311 311 312 314 313 310 310 310 310 313 317 324 328 328 328 330 333 338
239 240 242 242 243 244 245 246 247 249 251 252 253 255 257 260 263 265 268 270 272 273 273 274 276 277 277 278 280 281 282 283 284 285 287 288 289 290 291 292 292 292 293 293 293 294 295 296 296 297 298 298 299 300 300 300 300 299 299 299 300 302 304 305 305 307 309 309 309 311 311 308 306 307 307 308 310 314 321 326 326 326 328 332 337
241 242 244 245 245 246 247 248 249 251 253 255 257 259 261 263 265 267 269 271 272 273 274 275 276 277 278 279 280 281 282 283 284 286 287 288 289 290 291 291 291 291 292 292 293 293 293 294 294 294 295 296 297 298 298 298 298 298 299 299 300 303 305 305 305 306 307 307 308 311 309 305 304 305 306 307 308 312 319 324 325 324 327 331 336
242 243 244 246 247 248 249 250 251 253 256 258 260 262 263 264 265 267 269 270 271 273 274 275 276 277 279 280 281 282 283 284 285 286 287 287 288 289 289 289 290 290 290 291 291 291 291 292 292 293 293 294 295 296 296 297 297 298 299 300 302 304 305 306 305 306 307 308 309 309 306 302 302 303 304 304 306 311 318 323 324 324 327 331 334
245 246 247 248 250 251 253 254 256 257 258 260 261 262 263 264 265 267 268 270 271 273 274 275 277 278 279 280 281 282 283 284 284 285 285 286 287 287 288 288 289 289 289 289 290 290 291 291 292 292 293 294 294 294 296 297 298 299 301 302 303 305 306 306 306 307 308 309 307 305 303 301 300 301 302 303 305 311 317 321 323 324 327 331 333
248 250 251 252 254 255 257 258 259 260 260 261 262 262 264 265 267 268 270 271 272 273 274 276 277 278 279 280 281 282 283 283 283 284 285 286 286 287 287 288 288 289 289 289 290 290 291 291 292 292 292 293 293 294 296 298 299 301 303 304 306 306 305 306 308 309 308 307 304 302 300 299 299 299 300 301 305 312 318 321 323 324 326 330 332
250 252 253 255 256 257 259 260 260 261 261 262 263 264 266 267 268 269 270 271 272 273 274 275 276 277 278 279 280 282 282 283 284 285 285 286 286 286 287 287 288 289 289 290 290 291 292 292 292 292 293 293 294 295 298 300 301 302 305 307 306 303 305 311 313 311 307 304 302 301 300 300 299 298 299 301 306 313 318 320 322 323 326 329 330
250 252 254 255 257 257 259 260 261 262 263 264 264 265 266 267 268 269 270 271 272 273 274 275 276 277 278 279 280 281 282 283 284 285 286 287 287 287 287 287 287 288 289 291 292 292 293 293 293 293 294 295 297 297 299 302 302 304 306 306 301 300 310 320 316 312 310 305 301 300 299 300 300 298 298 301 307 313 317 319 321 323 326 327 328
251 252 254 255 256 257 258 259 260 262 263 264 265 266 266 267 268 269 270 271 273 274 275 276 278 279 279 280 280 280 281 282 283 284 286 287 288 289 289 288 288 288 289 292 293 293 293 293 294 294 295 297 298 298 299 302 303 304 305 300 293 297 311 313 308 308 308 304 300 298 297 299 299 297 299 303 308 313 316 318 321 323 324 326 327
250 251 253 255 256 257 258 259 260 261 262 264 266 267 268 269 270 271 273 274 275 276 277 278 279 279 280 280 281 281 281 282 283 283 284 285 287 288 288 289 288 288 289 291 291 292 292 293 294 295 295 297 297 296 299 302 303 304 301 291 286 293 300 300 300 301 299 297 297 296 297 298 298 296 299 304 308 311 313 317 321 323 323 325 326
249 251 252 255 257 258 259 260 262 263 263 265 266 268 270 271 272 273 274 275 276 276 277 278 279 279 280 281 281 282 282 283 284 284 284 285 286 287 287 288 288 289 290 291 290 291 291 292 294 296 297 297 297 297 298 300 301 302 295 284 282 287 289 292 298 298 295 294 296 298 299 299 297 295 298 303 307 310 313 317 320 320 322 324 324
251 253 254 255 257 258 259 260 261 262 263 265 266 267 269 270 271 272 273 274 275 275 277 278 278 279 280 281 282 283 283 285 287 288 288 288 288 288 289 289 290 291 293 292 291 291 290 291 294 296 298 299 299 297 297 298 300 299 289 279 279 285 289 292 294 294 293 294 297 300 301 299 296 295 298 304 308 310 312 315 316 318 321 323 321
249 251 253 254 255 256 257 258 259 261 262 264 266 267 268 268 269 270 270 271 272 273 275 276 277 278 279 280 282 283 284 287 289 290 291 291 292 293 293 293 294 295 295 294 292 290 289 291 293 295 297 299 298 295 294 294 293 291 287 282 281 288 297 301 297 291 291 295 297 297 299 299 297 297 301 306 309 309 310 312 314 315 318 320 318
249 251 253 254 256 257 258 259 261 262 263 264 266 267 268 268 269 270 271 271 272 274 275 276 278 279 280 281 282 283 284 287 289 289 289 290 292 294 296 297 298 298 298 296 293 291 291 291 293 296 298 297 292 289 289 289 288 291 296 291 285 291 305 310 304 295 294 296 295 294 296 298 297 297 302 305 305 306 307 309 311 312 315 317 316
253 254 256 257 258 260 262 263 264 266 267 268 269 269 270 271 272 273 274 275 276 277 277 278 280 281 282 282 283 283 285 287 287 287 287 288 290 293 295 297 298 299 300 297 294 293 293 293 295 297 295 290 287 288 290 291 289 292 296 292 283 285 297 303 302 298 296 296 294 293 294 296 294 295 299 302 302 303 306 308 310 311 313 315 314
256 258 259 260 262 263 265 267 268 269 270 271 272 273 274 276 276 277 278 279 279 280 280 281 283 283 283 284 284 286 287 287 287 286 286 287 289 291 293 295 297 299 299 297 295 294 294 295 294 290 284 286 290 292 291 289 287 288 290 289 283 282 288 295 297 294 292 292 293 293 293 291 291 294 298 302 305 305 306 308 310 311 312 313 313
258 260 261 263 264 265 267 269 270 271 272 273 274 275 277 278 278 279 280 280 281 282 283 284 284 284 284 285 286 287 287 287 287 287 286 287 288 289 290 292 295 297 298 297 295 294 295 295 288 278 281 290 295 296 294 291 290 289 289 290 288 285 286 291 293 292 290 289 291 293 291 288 289 294 300 306 309 308 305 306 308 310 311 312 312
259 261 262 264 265 267 268 270 271 272 273 274 275 276 277 278 279 279 280 280 281 282 283 284 284 285 285 285 286 286 287 287 287 287 287 288 288 288 289 290 291 294 295 295 294 294 295 294 288 284 289 295 298 300 300 296 294 294 296 298 296 292 291 292 292 290 289 288 291 293 289 285 289 298 304 308 310 308 305 303 305 308 310 309 309
259 261 263 264 266 267 268 270 271 273 274 275 276 277 278 278 279 279 280 281 282 283 283 284 285 285 286 287 287 288 288 288 288 289 289 289 288 289 289 289 289 291 291 292 293 294 294 293 290 289 292 295 298 301 300 295 293 296 300 302 300 296 295 295 293 290 287 287 289 291 286 284 291 300 304 305 306 306 304 301 302 306 308 309 309
259 261 263 264 265 267 268 270 271 273 274 275 276 277 278 279 279 280 281 281 282 283 284 285 286 286 287 288 289 290 290 290 289 289 289 289 289 289 289 289 288 287 287 288 290 292 292 291 289 289 290 293 296 296 293 291 291 294 297 298 297 297 298 296 294 291 288 287 288 286 283 285 292 298 301 302 302 303 303 301 301 304 307 308 309
260 261 263 264 266 267 269 270 271 273 274 275 276 277 278 279 279 280 281 281 282 284 285 286 286 287 288 289 290 290 290 291 291 291 291 290 290 289 289 288 287 285 284 286 287 289 288 287 285 285 285 283 282 284 285 285 286 291 295 294 293 294 295 294 292 291 290 290 287 281 279 284 290 294 298 300 300 301 301 300 301 302 305 306 306
260 262 263 265 266 268 269 270 271 273 274 275 276 277 278 279 280 280 281 282 283 284 285 285 287 288 289 290 290 291 292 293 293 293 292 291 290 289 288 287 286 284 283 284 286 287 286 284 283 282 278 271 271 277 284 285 285 290 293 292 291 292 291 289 289 289 289 290 286 277 274 280 287 293 296 298 298 300 300 300 300 302 303 303 305
261 262 264 265 266 268 269 270 271 273 274 275 276 277 278 279 280 281 282 282 283 284 284 285 286 287 288 289 290 292 294 295 295 294 292 291 291 290 289 288 287 284 283 282 283 285 285 284 283 281 276 271 270 274 282 285 284 286 291 292 293 293 291 288 287 286 286 285 280 272 270 276 285 292 295 295 297 299 299 300 301 303 302 302 303
261 263 264 265 266 267 269 270 271 272 273 275 276 277 278 279 280 280 281 282 283 284 284 285 287 287 288 289 291 293 294 294 294 294 292 291 290 291 292 292 290 288 284 281 280 281 282 284 283 276 271 271 269 268 275 284 286 289 296 297 291 288 287 286 284 285 284 279 271 267 268 275 283 290 292 294 296 297 297 299 301 301 300 300 301
262 263 264 265 266 267 268 270 271 272 273 275 276 277 278 278 279 280 281 282 283 283 284 286 287 288 289 291 293 294 293 293 292 292 289 287 288 292 296 297 294 290 286 281 278 277 279 282 278 264 259 265 265 265 274 283 285 287 294 296 287 281 279 277 276 280 281 273 265 266 270 276 283 288 291 293 294 293 295 298 299 299 299 299 301
262 263 264 265 266 267 268 269 271 272 273 274 276 277 278 278 279 280 281 282 283 284 285 286 287 288 290 292 293 292 291 290 290 289 286 283 286 292 296 297 295 290 285 280 275 273 276 278 271 256 255 266 275 277 280 281 278 275 278 283 280 274 272 270 268 270 271 267 263 265 270 277 283 287 289 291 291 291 294 297 297 297 298 299 300
262 263 264 265 266 267 268 269 270 272 273 274 276 277 278 279 279 280 281 282 283 284 285 286 287 288 290 291 290 290 290 289 290 290 287 285 286 291 294 295 293 288 282 277 273 271 273 273 265 257 259 267 277 279 278 277 276 271 268 270 270 266 266 266 264 262 264 265 264 265 270 276 281 284 286 289 290 290 293 295 295 296 297 298 298
263 264 265 266 266 267 268 269 271 272 273 275 276 277 278 279 279 280 282 283 284 284 285 286 287 288 288 289 288 288 288 289 290 291 290 288 289 291 293 293 291 285 278 272 270 270 271 267 261 258 258 260 268 273 268 267 271 270 264 262 262 259 259 261 261 259 261 264 266 268 271 275 278 280 283 287 289 289 291 293 294 296 296 296 296
262 263 264 265 266 267 268 270 271 272 274 275 276 277 278 278 279 280 282 282 283 284 284 285 285 286 286 286 287 287 287 289 290 291 290 290 290 292 292 290 287 282 274 268 266 267 266 262 259 261 259 258 266 274 266 260 265 267 261 257 257 256 256 258 257 257 259 263 266 270 273 275 276 279 283 286 287 287 290 292 294 295 294 294 293
262 263 263 264 266 267 268 270 271 273 274 275 276 277 277 278 279 280 281 282 283 283 284 284 284 285 285 285 286 286 287 288 290 290 289 289 290 291 291 287 283 277 270 264 263 263 261 258 259 263 262 260 264 270 268 262 263 260 253 249 251 255 257 255 253 254 258 263 268 272 275 276 277 280 282 283 284 286 289 291 292 292 292 291 291
261 262 263 264 265 267 268 270 271 273 273 274 275 276 277 278 279 280 281 282 283 283 284 284 284 284 285 286 286 286 285 287 289 289 289 289 289 290 289 284 278 274 267 262 260 259 255 253 257 261 262 263 265 269 270 267 259 252 249 248 251 253 252 250 250 255 260 265 269 273 275 276 278 280 280 281 283 286 288 289 290 289 289 288 289
260 261 263 264 265 267 268 270 271 272 272 273 274 275 276 277 279 280 281 282 283 283 284 284 284 285 286 286 286 285 285 288 290 290 290 290 290 290 288 281 275 270 266 261 258 255 251 251 257 261 263 265 266 265 262 259 254 251 251 252 252 251 251 252 256 263 266 268 271 273 274 275 277 279 279 281 283 285 286 287 287 287 287 287 288
261 262 263 265 266 267 268 269 270 271 272 273 274 275 276 278 280 281 282 283 283 283 284 284 285 285 286 286 285 284 285 289 291 291 290 291 292 291 288 280 271 267 265 261 257 252 250 252 256 257 258 262 266 262 257 256 255 253 253 254 254 255 257 261 265 269 271 271 272 273 273 274 276 277 279 281 283 284 285 286 286 286 287 288 290
262 264 265 266 267 268 269 270 271 272 274 275 276 277 278 279 280 281 281 282 282 283 283 283 284 284 284 284 283 283 285 289 291 292 291 292 294 293 288 279 269 263 261 259 255 249 246 247 251 252 255 261 267 263 257 255 253 250 250 254 257 257 259 264 268 269 269 269 269 269 270 272 275 277 279 281 284 286 287 287 286 286 287 290 293
264 265 266 267 268 269 270 271 272 274 275 276 276 277 278 279 280 281 281 281 281 281 282 282 282 283 283 283 283 284 287 290 292 294 294 295 297 295 289 279 269 262 258 256 252 244 238 236 240 248 257 259 251 239 240 244 246 246 249 254 256 256 259 265 268 267 266 267 267 269 271 274 276 279 282 285 286 288 287 286 286 287 289 292 295
265 266 267 268 269 270 271 272 273 274 275 276 277 278 279 280 280 281 281 281 282 282 282 283 283 283 284 284 285 288 290 292 294 296 298 299 300 298 290 280 271 263 257 254 249 240 234 233 230 227 233 237 231 225 228 236 239 242 248 254 256 257 261 265 266 266 267 268 270 272 275 277 280 283 285 285 285 285 285 286 287 289 291 293 296
265 266 267 268 270 271 272 273 273 274 275 275 276 277 278 279 280 281 281 281 281 282 283 284 284 285 286 287 288 290 291 292 294 296 298 300 300 297 289 282 275 267 259 253 247 238 233 232 230 223 217 218 219 222 227 232 235 240 249 257 260 260 263 265 266 267 270 272 274 277 279 281 283 284 284 283 283 285 286 288 289 290 292 294 295
265 267 268 269 270 271 272 273 274 274 274 274 274 275 276 278 279 280 280 280 281 282 283 284 285 286 287 288 289 290 291 292 293 295 297 299 300 296 289 283 277 270 262 255 247 238 232 230 229 227 221 215 214 218 225 232 237 244 253 260 262 263 264 267 269 271 273 276 278 280 281 282 282 281 281 282 285 287 288 289 290 291 293 294 295
265 266 268 269 270 270 271 272 273 273 273 272 272 273 275 277 278 279 280 280 281 282 283 285 286 286 287 288 288 289 290 291 293 294 296 298 299 297 291 285 279 272 265 258 250 242 235 231 228 229 229 229 229 231 236 242 248 254 259 262 264 265 267 269 271 274 276 277 279 280 280 280 280 280 282 284 286 287 287 289 290 291 292 293 293
264 265 266 267 267 267 268 268 269 270 270 270 270 271 274 275 276 277 278 279 280 281 282 283 284 284 285 286 286 287 289 291 293 294 295 296 298 298 294 288 280 272 266 261 254 246 241 236 232 231 233 237 241 245 248 252 257 260 263 265 267 268 269 271 272 274 276 277 278 278 279 279 280 281 283 284 285 285 286 287 288 289 290 291 293
262 263 263 263 263 263 263 263 265 266 267 267 268 269 271 273 275 275 276 278 279 279 280 281 282 283 283 284 285 287 288 290 292 293 294 296 297 297 296 292 282 270 264 262 258 252 248 244 240 237 237 239 243 248 252 256 260 263 265 266 268 269 269 270 271 272 273 274 275 275 276 276 277 279 280 281 282 284 285 286 287 288 289 291 293